Weather History for Bierset, Belgium

Change the Weather History Date:

Sunday, January 1, 2012

  Actual Average Record
Temperature  
Mean Temperature 52 °F -  
Max Temperature 55 °F 40 °F 55 °F (2012)
Min Temperature 48 °F 32 °F 21 °F (2009)
Degree Days  
Heating Degree Days 14    
Growing Degree Days 2 (Base 50)    
Moisture  
Dew Point 50 °F    
Average Humidity 91    
Maximum Humidity 94    
Minimum Humidity 81    
Precipitation  
Precipitation 0.08 in - - ()
Sea Level Pressure  
Sea Level Pressure 29.83 in    
Wind  
Wind Speed 15 mph ()    
Max Wind Speed 27 mph    
Max Gust Speed 38 mph    
Visibility 6.1 miles    
Events Rain    
Averages and records for this station are not official NWS values.
T = Trace of Precipitation, MM = Missing Value Source: Averaged Metar Reports

Daily Weather History Graph

Daily Weather History Graph

Search for Another Location

Airport:

Trip Planner

Search our weather history database for the weather conditions in past years. The results will help you decide how hot, cold, wet, or windy it might be!

Date:

Astronomy

Jan. 01, 2012 Rise Set
Actual Time 8:39 AM CET 4:43 PM CET
Civil Twilight 8:00 AM CET 5:22 PM CET
Nautical Twilight 7:18 AM CET 6:04 PM CET
Astronomical Twilight 6:38 AM CET 6:44 PM CET
Moon 11:50 AM CET (1/1) 12:51 AM CET (1/1)
Length of Visible Light 9h 21m
Length of Day
8h 03m
First Quarter, 52% of the Moon is Illuminated
Jan 1
First Quarter
Jan 9
Full
Jan 16
Last Quarter
Jan 23
New
Jan 31
First Quarter

Hourly Weather History & Observations

Time (CET) Temp. Dew Point Humidity Pressure Visibility Wind Dir Wind Speed Gust Speed Precip Events Conditions
12:20 AM 50.0 °F 48.2 °F 94% 29.89 in 6.2 mi SW 11.5 mph - N/A   Light Drizzle
12:50 AM 50.0 °F 48.2 °F 94% 29.89 in 6.2 mi SW 13.8 mph - N/A   Mostly Cloudy
1:00 AM 50 °F 48 °F 91% 29.91 in 12 mi SW 13.4 mph - - Rain Light Drizzle
1:20 AM 50.0 °F 48.2 °F 94% 29.89 in 6.2 mi SW 12.7 mph - N/A   Mostly Cloudy
1:50 AM 50.0 °F 48.2 °F 94% 29.89 in 6.2 mi SW 16.1 mph - N/A   Mostly Cloudy
2:20 AM 50.0 °F 48.2 °F 94% 29.89 in 6.2 mi SW 13.8 mph - N/A   Mostly Cloudy
2:50 AM 50.0 °F 48.2 °F 94% 29.89 in 6.2 mi SW 13.8 mph - N/A   Mostly Cloudy
3:20 AM 50.0 °F 48.2 °F 94% 29.89 in 4.3 mi SW 13.8 mph - N/A   Light Drizzle
3:50 AM 50.0 °F 48.2 °F 94% 29.89 in 6.2 mi SW 15.0 mph - N/A   Light Drizzle
4:20 AM 50.0 °F 48.2 °F 94% 29.89 in 6.2 mi SW 16.1 mph - N/A Rain Light Rain
4:50 AM 50.0 °F 48.2 °F 94% 29.89 in 3.1 mi SW 15.0 mph - N/A Rain Light Rain Showers
5:20 AM 50.0 °F 48.2 °F 94% 29.89 in 6.2 mi SW 16.1 mph - N/A Rain Light Rain Showers
5:50 AM 50.0 °F 48.2 °F 94% 29.86 in 6.2 mi SSW 16.1 mph - N/A   Mostly Cloudy
6:20 AM 51.8 °F 50.0 °F 94% 29.86 in 2.5 mi SW 19.6 mph - N/A   Light Drizzle
6:50 AM 51.8 °F 50.0 °F 94% 29.86 in 3.1 mi SSW 17.3 mph - N/A Rain Light Rain
7:00 AM 51 °F 50 °F 93% 29.89 in 3 mi SSW 17.9 mph - - Rain Light Rain
7:20 AM 51.8 °F 50.0 °F 94% 29.86 in 6.2 mi SW 17.3 mph - N/A   Mostly Cloudy
7:50 AM 51.8 °F 50.0 °F 94% 29.89 in - SW 16.1 mph - N/A Rain Light Rain
8:20 AM 51.8 °F 50.0 °F 94% 29.89 in - SSW 17.3 mph - N/A Rain Light Rain
8:50 AM 51.8 °F 50.0 °F 94% 29.89 in 3.1 mi SW 16.1 mph - N/A   Light Drizzle
9:20 AM 51.8 °F 50.0 °F 94% 29.89 in 3.1 mi SW 17.3 mph - N/A   Light Drizzle
9:50 AM 51.8 °F 50.0 °F 94% 29.89 in 3.1 mi SW 15.0 mph - N/A Rain Light Rain
10:00 AM 52 °F 50 °F 91% 29.91 in 3 mi SW 15.7 mph - - Rain Light Rain
10:20 AM 51.8 °F 50.0 °F 94% 29.89 in - SW 17.3 mph - N/A Rain Light Rain
10:50 AM 51.8 °F 50.0 °F 94% 29.89 in 1.7 mi SW 13.8 mph - N/A Rain Light Rain
11:20 AM 51.8 °F 50.0 °F 94% 29.89 in - SSW 15.0 mph - N/A   Light Drizzle
11:50 AM 53.6 °F 50.0 °F 88% 29.89 in 6.2 mi SSW 16.1 mph - N/A   Mostly Cloudy
12:20 PM 53.6 °F 51.8 °F 94% 29.86 in 3.7 mi SSW 16.1 mph - N/A   Mostly Cloudy
12:50 PM 53.6 °F 50.0 °F 88% 29.86 in 4.3 mi SW 16.1 mph - N/A   Mostly Cloudy
1:00 PM 53 °F 51 °F 90% 29.87 in 4 mi SW 15.7 mph - -   Partly Cloudy
1:20 PM 53.6 °F 50.0 °F 88% 29.86 in 3.1 mi SSW 17.3 mph - N/A   Mostly Cloudy
1:50 PM 53.6 °F 51.8 °F 94% 29.83 in 4.3 mi SSW 16.1 mph - N/A Rain Light Rain
2:20 PM 53.6 °F 51.8 °F 94% 29.83 in - SSW 16.1 mph - N/A Rain Light Rain
2:50 PM 53.6 °F 50.0 °F 88% 29.83 in - SSW 17.3 mph - N/A Rain Light Rain
3:20 PM 53.6 °F 51.8 °F 94% 29.83 in 6.2 mi SSW 16.1 mph - N/A   Mostly Cloudy
3:50 PM 53.6 °F 50.0 °F 88% 29.80 in 6.2 mi SSW 17.3 mph - N/A   Mostly Cloudy
4:00 PM 53 °F 51 °F 90% 29.82 in 19 mi SSW 17.9 mph - -   Mostly Cloudy
4:20 PM 53.6 °F 50.0 °F 88% 29.80 in 6.2 mi South 15.0 mph - N/A Rain Light Rain
4:50 PM 53.6 °F 50.0 °F 88% 29.80 in 6.2 mi South 13.8 mph - N/A   Mostly Cloudy
5:20 PM 53.6 °F 50.0 °F 88% 29.77 in 6.2 mi SSW 20.7 mph - N/A   Mostly Cloudy
5:50 PM 53.6 °F 50.0 °F 88% 29.77 in 6.2 mi SSW 19.6 mph - N/A   Mostly Cloudy
6:20 PM 53.6 °F 50.0 °F 88% 29.77 in 6.2 mi SSW 17.3 mph - N/A   Mostly Cloudy
6:50 PM 53.6 °F 50.0 °F 88% 29.77 in 6.2 mi SSW 17.3 mph - N/A   Light Drizzle
7:00 PM 54 °F 51 °F 84% 29.77 in 12 mi SSW 17.9 mph - - Rain Light Drizzle
7:20 PM 53.6 °F 50.0 °F 88% 29.74 in 6.2 mi SSW 19.6 mph 36.8 mph N/A   Light Drizzle
7:50 PM 53.6 °F 50.0 °F 88% 29.74 in 6.2 mi SSW 19.6 mph - N/A   Mostly Cloudy
8:20 PM 53.6 °F 50.0 °F 88% 29.71 in 6.2 mi SSW 21.9 mph - N/A   Mostly Cloudy
8:50 PM 53.6 °F 50.0 °F 88% 29.71 in 6.2 mi SSW 25.3 mph - N/A   Mostly Cloudy
9:20 PM 55.4 °F 50.0 °F 82% 29.68 in 6.2 mi SSW 21.9 mph 33.4 mph N/A   Mostly Cloudy
9:50 PM 55.4 °F 50.0 °F 82% 29.68 in 6.2 mi SSW 25.3 mph 36.8 mph N/A   Mostly Cloudy
10:00 PM 54 °F 50 °F 81% 29.69 in 19 mi SSW 26.8 mph - - Rain Light Rain
10:20 PM 53.6 °F 50.0 °F 88% 29.68 in 6.2 mi SSW 25.3 mph - N/A   Mostly Cloudy
10:50 PM 53.6 °F 50.0 °F 88% 29.68 in 6.2 mi SSW 21.9 mph - N/A   Mostly Cloudy
11:20 PM 53.6 °F 50.0 °F 88% 29.65 in 5.6 mi SSW 24.2 mph 38.0 mph N/A Rain Light Rain
11:50 PM 53.6 °F 50.0 °F 88% 29.65 in 6.2 mi SSW 23.0 mph - N/A   Mostly Cloudy